This demonstration page uses our WeatherBlox Daily Observations layout. Learn more.

Left ArrowRight Arrow

41.55636, -103.73856

Hourly Observations for March 7, 2017

Temp ( °F °C ) Dew Point ( °F °C ) Humidity (%) Winds ( mph kmh ) Pressure ( in mb ) Visibility ( mi km ) Precip ( " mm )
12:53 am 00:53 Clear 29 -1.7 13 -10.6 51 51 W 20 31 29.94 1014 10 16 0.00 0.00
1:53 am 01:53 Clear 28 -2.2 13 -10.6 53 53 W 14 22 29.95 1014 10 16 0.00 0.00
2:53 am 02:53 Clear 28 -2.2 12 -11.1 51 51 W 16 26 29.95 1014 10 16 0.00 0.00
3:53 am 03:53 Clear 28 -2.2 13 -10.6 53 53 W 15 24 29.95 1014 10 16 0.00 0.00
4:53 am 04:53 Mostly Clear 30 -1.1 13 -10.6 49 49 W 15 24 29.96 1014 10 16 0.00 0.00
5:53 am 05:53 Cloudy 31 -0.6 14 -10 49 49 W 18 30 29.95 1014 10 16 0.00 0.00
6:53 am 06:53 Sunny 31 -0.6 15 -9.4 52 52 W 15 24 29.97 1015 10 16 0.00 0.00
7:53 am 07:53 Sunny 35 1.7 15 -9.4 44 44 W 23 37 29.98 1015 10 16 0.00 0.00
8:53 am 08:53 Sunny 38 3.3 13 -10.6 36 36 W 35 56 30.01 1016 10 16 0.00 0.00
9:53 am 09:53 Sunny 40 4.4 11 -11.7 30 30 W 28 44 30.03 1017 10 16 0.00 0.00
10:53 am 10:53 Partly Cloudy 42 5.6 10 -12.2 27 27 W 30 48 30.05 1018 10 16 0.00 0.00
11:53 am 11:53 Partly Cloudy 43 6.1 9 -12.8 25 25 W 25 41 30.07 1018 10 16 0.00 0.00
12:53 pm 12:53 Mostly Cloudy 43 6.1 5 -15 21 21 WNW 35 56 30.06 1018 10 16 0.00 0.00
1:53 pm 13:53 Mostly Cloudy 45 7.2 8 -13.3 22 22 WNW 31 50 30.04 1017 10 16 0.00 0.00
2:53 pm 14:53 Mostly Cloudy 45 7.2 12 -11.1 26 26 WNW 23 37 30.05 1018 10 16 0.00 0.00
3:53 pm 15:53 Mostly Cloudy 46 7.8 15 -9.4 29 29 WNW 28 44 30.05 1018 10 16 0.00 0.00
4:53 pm 16:53 Partly Cloudy 44 6.7 17 -8.3 34 34 W 21 33 30.06 1018 10 16 0.00 0.00
5:53 pm 17:53 Clear 42 5.6 15 -9.4 33 33 WNW 22 35 30.07 1018 10 16 0.00 0.00
6:53 pm 18:53 Clear 38 3.3 19 -7.2 46 46 WNW 16 26 30.10 1019 10 16 0.00 0.00
7:53 pm 19:53 Clear 37 2.8 18 -7.8 46 46 undefined N/A 30.11 1020 10 16 0.00 0.00
8:53 pm 20:53 Clear 37 2.8 18 -7.8 46 46 WNW 12 19 30.11 1020 10 16 0.00 0.00
9:53 pm 21:53 Clear 32 0 19 -7.2 59 59 WNW 6 9 30.12 1020 10 16 0.00 0.00
10:53 pm 22:53 Clear 32 0 20 -6.7 61 61 NNW 5 7 30.13 1020 10 16 0.00 0.00
11:53 pm 23:53 Clear 37 2.8 19 -7.2 48 48 WNW 5 7 30.12 1020 10 16 0.00 0.00

Powered by AerisWeather